Home > Weather > Alpena > Past weeks

Flag for U.S.A. Weather for the Past 2 Weeks in Alpena, Michigan, U.S.A.

Now
15 °F

Light snow. Overcast.


Feels Like: 6 °F
Forecast: 0 / 18 °F
Wind: 6 mph from Southwest

Location: Alpena County Regional Airport

Current Time: Feb 12, 2016 at 7:55:44 AM

Latest Report: Feb 12, 2016 at 6:54 AM


Visibility: 4 mi

Pressure: 29.95 "Hg

Humidity: 77%

Dew point: 9 °F

Location of AlpenaLocation

Historic Weather in Alpena — Graph

°F

Alpena Temperature Yesterday

Maximum temperature yesterday: 17 °F (at 6:54 PM)
Minimum temperature yesterday: 5 °F (at 2:54 AM)
Average temperature yesterday: 10 °F

High & Low Weather Summary for the Past Weeks

 TemperatureHumidityPressure
High42 °F (Jan 30, 3:54 PM)100% (Feb 3, 8:54 AM)30.32 "Hg (Feb 3, 8:54 AM)
Low5 °F (Feb 11, 2:54 AM)42% (Jan 29, 3:54 PM)29.40 "Hg (Jan 28, 11:04 AM)
Average26 °F78%29.85 "Hg
* Reported Jan 28 6:54 AM — Feb 12 6:54 AM, Alpena, Weather by CustomWeather, © 2016

Note: Actual official high and low records may vary slightly from our data, if they occured in-between our weather recording intervals... More about our weather records

Advertising

Alpena Weather History for the Previous 24 Hours

 ConditionsComfort  
Time TempWeatherWind HumidityBarometerVisibility
6:54 AM
Fri, Feb 12
15 °FLight snow. Overcast.6 mph77%29.95 "Hg4 mi
6:01 AM15 °FLight snow. Overcast.7 mph77%29.93 "Hg3 mi
4:54 AM15 °FOvercast.8 mph67%29.98 "Hg10 mi
3:54 AM15 °FMostly cloudy.9 mph67%29.99 "Hg10 mi
2:54 AM15 °FOvercast.13 mph67%30.01 "Hg10 mi
1:54 AM13 °FPassing clouds.10 mph70%30.05 "Hg10 mi
12:54 AM13 °FPassing clouds.8 mph67%30.09 "Hg10 mi
11:54 PM
Thu, Feb 11
14 °FPassing clouds.7 mph64%30.12 "Hg10 mi
10:54 PM16 °FMostly cloudy.7 mph65%30.14 "Hg10 mi
9:54 PM16 °FOvercast.7 mph67%30.16 "Hg10 mi
8:54 PM16 °FOvercast.6 mph71%30.17 "Hg10 mi
7:54 PM16 °FOvercast.7 mph67%30.19 "Hg10 mi
6:54 PM17 °FOvercast.9 mph56%30.18 "Hg10 mi
5:54 PM16 °FOvercast.5 mph53%30.18 "Hg10 mi
3:54 PM16 °FScattered clouds.7 mph49%30.19 "Hg10 mi
2:54 PM15 °FPassing clouds.10 mph49%30.20 "Hg10 mi
1:54 PM13 °FPassing clouds.8 mph54%30.21 "Hg8 mi
12:54 PM10 °FOvercast.12 mph64%30.22 "Hg8 mi
11:54 AM9 °FLight snow. More clouds than sun.13 mph64%30.23 "Hg3 mi
10:54 AM7 °FLight snow. Overcast.12 mph70%30.22 "Hg5 mi
10:01 AM6 °FLight snow. More clouds than sun.16 mph69%30.15 "Hg3 mi
8:54 AM5 °FLight snow. Overcast.15 mph76%30.19 "Hg2 mi
8:02 AM5 °FLight snow. Overcast.10 mph76%30.12 "Hg3 mi
7:54 AM5 °FLight snow. Overcast.10 mph76%30.17 "Hg3 mi
Weather by CustomWeather, © 2016

See weather overviewHow to use our weather pages